This demonstration page uses our WeatherBlox Daily Observations layout. Learn more.

Left ArrowRight Arrow

Hourly Observations for March 27, 2015

Temp ( °F °C ) Dew Point ( °F °C ) Humidity (%) Winds ( mph kmh ) Pressure ( in mb ) Visibility ( mi km ) Precip ( " mm )
12:16 am 00:16 Cloudy 34 1 25 -4 70 70 N 5 7 30.06 1018 10 16 N/A
12:36 am 00:36 Cloudy 34 1 25 -4 70 70 N 6 9 30.06 1018 10 16 N/A
12:55 am 00:55 Cloudy 36 2 23 -5 60 60 N 9 15 30.06 1018 10 16 N/A
1:16 am 01:16 Partly Cloudy 34 1 21 -6 60 60 NNE 8 13 30.06 1018 10 16 N/A
1:36 am 01:36 Clear 34 1 21 -6 60 60 N 9 15 30.06 1018 10 16 N/A
1:55 am 01:55 Clear 32 undefined 21 -6 64 64 NNE 8 13 30.06 1018 10 16 N/A
2:16 am 02:16 Clear 32 undefined 21 -6 64 64 N 6 9 30.06 1018 10 16 N/A
2:36 am 02:36 Clear 30 -1 21 -6 69 69 N 6 9 30.06 1018 10 16 N/A
2:55 am 02:55 Clear 30 -1 21 -6 69 69 N 6 9 30.06 1018 10 16 N/A
3:16 am 03:16 Clear 30 -1 21 -6 69 69 N 6 9 30.06 1018 10 16 N/A
3:36 am 03:36 Clear 30 -1 21 -6 69 69 NNE 5 7 30.06 1018 10 16 N/A
3:55 am 03:55 Partly Cloudy 30 -1 19 -7 64 64 N 5 7 30.06 1018 10 16 N/A
4:16 am 04:16 Mostly Cloudy 30 -1 21 -6 69 69 N 5 7 30.06 1018 10 16 N/A
4:36 am 04:36 Partly Cloudy 28 -2 21 -6 74 74 N 5 7 30.06 1018 10 16 N/A
4:55 am 04:55 Partly Cloudy 28 -2 21 -6 74 74 N 6 9 30.06 1018 10 16 N/A
5:16 am 05:16 Clear 28 -2 23 -5 80 80 N 8 13 30.06 1018 10 16 N/A
5:36 am 05:36 Partly Cloudy 30 -1 23 -5 75 75 NNW 8 13 30.06 1018 10 16 N/A
5:55 am 05:55 Partly Cloudy 30 -1 21 -6 69 69 N 8 13 30.06 1018 10 16 N/A
6:16 am 06:16 Partly Cloudy 30 -1 21 -6 69 69 NNW 8 13 30.06 1018 10 16 N/A
6:36 am 06:36 Mostly Cloudy 30 -1 19 -7 64 64 N 8 13 30.09 1019 10 16 N/A
6:55 am 06:55 Cloudy 30 -1 19 -7 64 64 N 7 11 30.06 1018 10 16 N/A
7:16 am 07:16 Mostly Cloudy 30 -1 19 -7 64 64 NNW 7 11 30.09 1019 10 16 N/A
7:36 am 07:36 Partly Cloudy 30 -1 19 -7 64 64 NNW 7 11 30.09 1019 10 16 N/A
7:55 am 07:55 Partly Cloudy 30 -1 19 -7 64 64 NNW 7 11 30.09 1019 10 16 N/A
8:16 am 08:16 Mostly Cloudy 30 -1 19 -7 64 64 NNW 7 11 30.09 1019 10 16 N/A
8:36 am 08:36 Partly Cloudy 30 -1 19 -7 64 64 NNW 9 15 30.09 1019 10 16 N/A
8:55 am 08:55 Partly Cloudy 30 -1 19 -7 64 64 N 16 26 30.09 1019 10 16 N/A
9:16 am 09:16 Partly Cloudy 32 undefined 19 -7 60 60 N 14 22 30.09 1019 10 16 N/A
9:36 am 09:36 Mostly Cloudy 32 undefined 18 -8 55 55 N 16 26 30.09 1019 10 16 N/A
9:55 am 09:55 Partly Cloudy 32 undefined 18 -8 55 55 N 13 20 30.09 1019 10 16 N/A
10:16 am 10:16 Sunny 32 undefined 14 -10 47 47 N 13 20 30.09 1019 10 16 N/A
10:36 am 10:36 Partly Cloudy 34 1 14 -10 44 44 N 16 26 30.12 1020 10 16 N/A
10:56 am 10:56 Mostly Cloudy 32 undefined 14 -10 47 47 N 14 22 30.12 1020 10 16 N/A
11:16 am 11:16 Mostly Cloudy 32 undefined 14 -10 47 47 N 13 20 30.12 1020 10 16 N/A
11:35 am 11:35 Partly Cloudy 32 undefined 14 -10 47 47 N 16 26 30.12 1020 10 16 N/A
11:56 am 11:56 Partly Cloudy 32 undefined 12 -11 44 44 N 12 19 30.12 1020 10 16 N/A
12:16 pm 12:16 Partly Cloudy 32 undefined 14 -10 47 47 N 14 22 30.12 1020 10 16 N/A
12:35 pm 12:35 Partly Cloudy 32 undefined 12 -11 44 44 N 13 20 30.12 1020 10 16 N/A
12:56 pm 12:56 Partly Cloudy 30 -1 12 -11 47 47 N 14 22 30.12 1020 10 16 N/A
1:16 pm 13:16 Mostly Cloudy 32 undefined 12 -11 44 44 N 13 20 30.12 1020 10 16 N/A
1:35 pm 13:35 Mostly Cloudy 32 undefined 14 -10 47 47 NNW 17 28 30.15 1021 10 16 N/A
1:56 pm 13:56 Partly Cloudy 32 undefined 9 -13 37 37 NNW 15 24 30.12 1020 10 16 N/A
2:16 pm 14:16 Partly Cloudy 30 -1 10 -12 43 43 NNW 13 20 30.15 1021 10 16 N/A
2:35 pm 14:35 Sunny 32 undefined 10 -12 40 40 NNW 16 26 30.12 1020 10 16 N/A
2:56 pm 14:56 Partly Cloudy 32 undefined 10 -12 40 40 N 16 26 30.12 1020 10 16 N/A
3:16 pm 15:16 Partly Cloudy 32 undefined 10 -12 40 40 NNW 16 26 30.12 1020 10 16 N/A
3:35 pm 15:35 Partly Cloudy 32 undefined 9 -13 37 37 NW 16 26 30.12 1020 10 16 N/A
3:56 pm 15:56 Mostly Cloudy 30 -1 16 -9 55 55 NNW 13 20 30.12 1020 4 6 N/A
4:16 pm 16:16 Mostly Cloudy 30 -1 12 -11 47 47 NNW 10 17 30.12 1020 10 16 N/A
4:35 pm 16:35 Partly Cloudy 32 undefined 10 -12 40 40 NW 14 22 30.12 1020 10 16 N/A
4:56 pm 16:56 Partly Cloudy 32 undefined 5 -15 32 32 NW 17 28 30.12 1020 10 16 N/A
5:16 pm 17:16 Mostly Cloudy 32 undefined 3 -16 29 29 NW 17 28 30.12 1020 10 16 N/A
5:35 pm 17:35 Mostly Cloudy 32 undefined 5 -15 32 32 NW 17 28 30.12 1020 10 16 N/A
5:56 pm 17:56 Partly Cloudy 32 undefined 5 -15 32 32 NW 14 22 30.12 1020 10 16 N/A
6:16 pm 18:16 Partly Cloudy 30 -1 9 -13 40 40 NW 18 30 30.12 1020 10 16 N/A
6:35 pm 18:35 Partly Cloudy 30 -1 9 -13 40 40 NNW 17 28 30.12 1020 10 16 N/A
6:56 pm 18:56 Partly Cloudy 30 -1 10 -12 43 43 NW 20 31 30.15 1021 10 16 N/A
7:16 pm 19:16 Partly Cloudy 30 -1 9 -13 40 40 NW 13 20 30.15 1021 10 16 N/A
7:35 pm 19:35 Partly Cloudy 28 -2 9 -13 43 43 NNW 13 20 30.15 1021 10 16 N/A
7:56 pm 19:56 Partly Cloudy 28 -2 5 -15 37 37 NNW 14 22 30.15 1021 10 16 N/A
8:15 pm 20:15 Mostly Cloudy 28 -2 7 -14 40 40 NNW 17 28 30.15 1021 10 16 N/A
8:36 pm 20:36 Mostly Cloudy 28 -2 7 -14 40 40 N 18 30 30.15 1021 10 16 N/A
8:56 pm 20:56 Cloudy 27 -3 5 -15 39 39 NNW 17 28 30.18 1022 10 16 N/A
9:15 pm 21:15 Cloudy 27 -3 7 -14 43 43 N 18 30 30.18 1022 10 16 N/A
9:36 pm 21:36 Cloudy 27 -3 5 -15 39 39 NNW 16 26 30.18 1022 10 16 N/A
9:56 pm 21:56 Mostly Cloudy 27 -3 10 -12 50 50 NNW 16 26 30.21 1023 10 16 N/A
10:15 pm 22:15 Mostly Cloudy 27 -3 7 -14 43 43 N 17 28 30.21 1023 10 16 N/A
10:36 pm 22:36 Partly Cloudy 27 -3 9 -13 46 46 NNW 16 26 30.21 1023 10 16 N/A
10:56 pm 22:56 Mostly Cloudy 25 -4 9 -13 50 50 N 13 20 30.24 1024 10 16 N/A
11:15 pm 23:15 Cloudy 25 -4 9 -13 50 50 N 14 22 30.24 1024 10 16 N/A
11:36 pm 23:36 Mostly Cloudy 25 -4 5 -15 42 42 N 13 20 30.24 1024 10 16 N/A
11:56 pm 23:56 Partly Cloudy 23 -5 7 -14 50 50 NNW 13 20 30.24 1024 10 16 N/A

Powered by AerisWeather